• In Netherlands
  • List of Countries
  • For 7 days
  • Water Temperature
  • Satellite Maps
  • Weather Map
  • Weather Widgets
  • user-avatar
    Login

    Hourly Weather Konstantyna

    Today, 18 January, Thursday

    Time Temperature Precipitation Wind Pressure Humidity
    00:00 +9°C° 0 mm 1 mps 715 mmHg 93%
    01:00 +8°C° 0 mm 1 mps 715 mmHg 93%
    02:00 +8°C° 0 mm 1 mps 715 mmHg 93%
    03:00 +7°C° 0 mm 1 mps 715 mmHg 94%
    04:00 +7°C° 0 mm 1 mps 715 mmHg 94%
    05:00 +7°C° 0 mm 1 mps 715 mmHg 94%
    06:00 +6°C° 0 mm 1 mps 715 mmHg 94%
    07:00 +8°C° 0 mm 1 mps 715 mmHg 89%
    08:00 +9°C° 0 mm 1 mps 716 mmHg 84%
    09:00 +11°C° 0 mm 1 mps 716 mmHg 79%
    10:00 +12°C° 0 mm 2 mps 716 mmHg 70%
    11:00 +14°C° 0 mm 2 mps 715 mmHg 62%
    12:00 +15°C° 0 mm 2 mps 715 mmHg 53%
    13:00 +16°C° 0 mm 2 mps 715 mmHg 50%
    14:00 +16°C° 0 mm 2 mps 714 mmHg 47%
    15:00 +17°C° 0 mm 2 mps 714 mmHg 44%
    16:00 +15°C° 0 mm 2 mps 714 mmHg 49%
    17:00 +13°C° 0 mm 2 mps 713 mmHg 55%
    18:00 +10°C° 0 mm 2 mps 713 mmHg 61%
    19:00 +10°C° 0 mm 2 mps 713 mmHg 63%
    20:00 +9°C° 0 mm 2 mps 713 mmHg 65%
    21:00 +9°C° 0 mm 2 mps 712 mmHg 67%
    22:00 +8°C° 0 mm 2 mps 712 mmHg 70%
    23:00 +8°C° 0 mm 2 mps 712 mmHg 73%

    Tomorrow, 19 January, Friday

    Time Temperature Precipitation Wind Pressure Humidity
    00:00 +8°C° 0 mm 2 mps 712 mmHg 76%
    01:00 +7°C° 0 mm 2 mps 711 mmHg 77%
    02:00 +7°C° 0 mm 2 mps 711 mmHg 79%
    03:00 +6°C° 0 mm 2 mps 710 mmHg 81%
    04:00 +6°C° 0 mm 2 mps 710 mmHg 82%
    05:00 +6°C° 0 mm 2 mps 710 mmHg 82%
    06:00 +6°C° 0 mm 2 mps 710 mmHg 82%
    07:00 +8°C° 0 mm 1 mps 710 mmHg 75%
    08:00 +10°C° 0 mm 1 mps 710 mmHg 68%
    09:00 +12°C° 0 mm 1 mps 710 mmHg 61%
    10:00 +13°C° 0 mm 1 mps 710 mmHg 55%
    11:00 +15°C° 0 mm 1 mps 710 mmHg 48%
    12:00 +16°C° 0 mm 1 mps 709 mmHg 42%
    13:00 +16°C° 0 mm 2 mps 709 mmHg 45%
    14:00 +16°C° 0 mm 2 mps 709 mmHg 48%
    15:00 +16°C° 0 mm 2 mps 708 mmHg 51%
    16:00 +13°C° 0 mm 3 mps 708 mmHg 62%
    17:00 +11°C° 0 mm 3 mps 708 mmHg 73%
    18:00 +10°C° 0 mm 3 mps 709 mmHg 84%
    19:00 +9°C° 0 mm 2 mps 709 mmHg 87%
    20:00 +9°C° 0 mm 2 mps 709 mmHg 91%
    21:00 +8°C° 0 mm 2 mps 710 mmHg 94%
    22:00 +8°C° 0 mm 2 mps 710 mmHg 93%
    23:00 +8°C° 0 mm 2 mps 710 mmHg 91%

    Day after tomorrow, 20 January, Saturday

    Time Temperature Precipitation Wind Pressure Humidity
    00:00 +8°C° 0 mm 2 mps 710 mmHg 90%
    01:00 +8°C° 0.1 mm 2 mps 710 mmHg 90%
    02:00 +8°C° 0.1 mm 2 mps 710 mmHg 91%
    03:00 +8°C° 0.1 mm 2 mps 710 mmHg 91%
    04:00 +8°C° 0.1 mm 2 mps 710 mmHg 91%
    05:00 +8°C° 0.1 mm 2 mps 710 mmHg 92%
    06:00 +8°C° 0.1 mm 3 mps 711 mmHg 92%
    07:00 +8°C° 0.1 mm 3 mps 711 mmHg 87%
    08:00 +9°C° 0.1 mm 3 mps 712 mmHg 82%
    09:00 +8°C° 0.1 mm 4 mps 712 mmHg 77%
    10:00 +10°C° 0.1 mm 3 mps 712 mmHg 75%
    11:00 +10°C° 0.1 mm 3 mps 712 mmHg 74%
    12:00 +11°C° 0.1 mm 3 mps 712 mmHg 72%
    13:00 +11°C° 0.1 mm 3 mps 712 mmHg 72%
    14:00 +11°C° 0.1 mm 3 mps 712 mmHg 72%
    15:00 +11°C° 0.1 mm 3 mps 712 mmHg 72%
    16:00 +9°C° 0 mm 2 mps 712 mmHg 78%
    17:00 +8°C° 0 mm 2 mps 712 mmHg 83%
    18:00 +8°C° 0 mm 1 mps 712 mmHg 89%
    19:00 +7°C° 0 mm 2 mps 713 mmHg 90%
    20:00 +7°C° 0 mm 2 mps 713 mmHg 90%
    21:00 +7°C° 0 mm 2 mps 713 mmHg 91%
    22:00 +7°C° 0 mm 2 mps 713 mmHg 91%
    23:00 +7°C° 0 mm 3 mps 713 mmHg 90%

    21 January, Sunday

    Time Temperature Precipitation Wind Pressure Humidity
    00:00 +7°C° 0 mm 3 mps 713 mmHg 90%
    01:00 +5°C° 0 mm 3 mps 713 mmHg 90%
    02:00 +5°C° 0 mm 3 mps 713 mmHg 90%
    03:00 +5°C° 0 mm 3 mps 712 mmHg 90%
    04:00 +5°C° 0 mm 3 mps 713 mmHg 88%
    05:00 +5°C° 0 mm 3 mps 713 mmHg 86%
    06:00 +5°C° 0 mm 3 mps 713 mmHg 84%
    07:00 +7°C° 0 mm 4 mps 713 mmHg 80%
    08:00 +8°C° 0 mm 4 mps 714 mmHg 76%
    09:00 +9°C° 0 mm 5 mps 714 mmHg 72%
    10:00 +12°C° 0 mm 5 mps 715 mmHg 69%
    11:00 +13°C° 0 mm 6 mps 715 mmHg 66%
    12:00 +14°C° 0 mm 6 mps 715 mmHg 63%
    13:00 +14°C° 0 mm 6 mps 715 mmHg 64%
    14:00 +14°C° 0 mm 6 mps 715 mmHg 64%
    15:00 +14°C° 0 mm 6 mps 715 mmHg 65%
    16:00 +13°C° 0 mm 5 mps 715 mmHg 73%
    17:00 +11°C° 0 mm 4 mps 715 mmHg 81%
    18:00 +9°C° 0 mm 3 mps 715 mmHg 89%
    19:00 +9°C° 0 mm 3 mps 716 mmHg 90%
    20:00 +9°C° 0 mm 3 mps 716 mmHg 91%
    21:00 +9°C° 0 mm 3 mps 716 mmHg 92%
    22:00 +9°C° 0 mm 3 mps 717 mmHg 93%
    23:00 +8°C° 0 mm 3 mps 717 mmHg 94%

    22 January, Monday

    Time Temperature Precipitation Wind Pressure Humidity
    00:00 +8°C° 0 mm 3 mps 717 mmHg 94%
    01:00 +8°C° 0 mm 3 mps 717 mmHg 95%
    02:00 +8°C° 0 mm 3 mps 717 mmHg 95%
    03:00 +8°C° 0 mm 2 mps 717 mmHg 95%
    04:00 +7°C° 0 mm 2 mps 717 mmHg 94%
    05:00 +7°C° 0 mm 2 mps 717 mmHg 94%
    06:00 +7°C° 0 mm 2 mps 717 mmHg 93%
    07:00 +8°C° 0 mm 2 mps 717 mmHg 88%
    08:00 +10°C° 0 mm 2 mps 718 mmHg 82%
    09:00 +12°C° 0 mm 2 mps 718 mmHg 76%
    10:00 +13°C° 0 mm 2 mps 718 mmHg 72%
    11:00 +13°C° 0 mm 3 mps 718 mmHg 68%
    12:00 +14°C° 0 mm 3 mps 718 mmHg 63%
    13:00 +14°C° 0 mm 3 mps 718 mmHg 62%
    14:00 +14°C° 0 mm 3 mps 718 mmHg 61%
    15:00 +14°C° 0 mm 3 mps 717 mmHg 60%
    16:00 +14°C° 0 mm 2 mps 717 mmHg 67%
    17:00 +12°C° 0 mm 2 mps 717 mmHg 74%
    18:00 +11°C° 0 mm 1 mps 717 mmHg 81%
    19:00 +10°C° 0 mm 1 mps 717 mmHg 81%
    20:00 +10°C° 0 mm 1 mps 717 mmHg 82%
    21:00 +10°C° 0 mm 1 mps 717 mmHg 83%
    22:00 +9°C° 0 mm 1 mps 717 mmHg 83%
    23:00 +9°C° 0 mm 1 mps 717 mmHg 82%

    23 January, Tuesday

    Time Temperature Precipitation Wind Pressure Humidity
    00:00 +9°C° 0 mm 1 mps 717 mmHg 81%
    01:00 +9°C° 0 mm 1 mps 717 mmHg 81%
    02:00 +9°C° 0 mm 1 mps 717 mmHg 81%
    03:00 +8°C° 0 mm 1 mps 717 mmHg 80%
    04:00 +8°C° 0 mm 1 mps 717 mmHg 81%
    05:00 +8°C° 0 mm 1 mps 717 mmHg 81%
    06:00 +8°C° 0 mm 1 mps 717 mmHg 81%
    07:00 +10°C° 0 mm 1 mps 718 mmHg 75%
    08:00 +11°C° 0 mm 1 mps 718 mmHg 68%
    09:00 +13°C° 0 mm 1 mps 719 mmHg 62%
    10:00 +14°C° 0 mm 1 mps 719 mmHg 59%
    11:00 +15°C° 0 mm 2 mps 719 mmHg 55%
    12:00 +16°C° 0 mm 2 mps 719 mmHg 51%
    13:00 +16°C° 0 mm 2 mps 719 mmHg 52%
    14:00 +16°C° 0 mm 3 mps 719 mmHg 53%
    15:00 +16°C° 0 mm 3 mps 718 mmHg 54%
    16:00 +14°C° 0 mm 2 mps 718 mmHg 63%
    17:00 +13°C° 0 mm 2 mps 718 mmHg 71%
    18:00 +11°C° 0 mm 1 mps 718 mmHg 80%
    19:00 +10°C° 0 mm 1 mps 719 mmHg 82%
    20:00 +10°C° 0 mm 1 mps 719 mmHg 84%
    21:00 +8°C° 0 mm 0 mps 719 mmHg 87%
    22:00 +9°C° 0 mm 1 mps 719 mmHg 87%
    23:00 +8°C° 0 mm 1 mps 718 mmHg 87%
    Show more